Погода Nis

Погода Nis : погода сейчас, прогноз погоды и архив. Всё, что Вы хотите узнать о погоде Nis!

Поиск расширенной информации на нашем сайте:

Другие новости

Новости СМИ2

Главная страница сайта

Новости сайта

03.07.2017

Напоминаем, что на нашем специализированном сайте Метеоцентр.Азия вы можете получить высокодетализированные автоматические прогнозы погоды по пунктам России, СНГ и мира в авиационном формате (включающие направление и скорость ветра, видимость, явления погоды, количество и форму облачности, нижнюю и верхнюю границу облачности).


Погода Nis - сегодня

Время (UTC), дата Ветер
(°,м/с) 
Видим.   Явления Облачность Т
(°С)
Тd
(°С)
f(%) Тe
(°С)
Pmin
(гПа)
dP
(гПа)
Po
(мм)
O2
(г/м3)
Тmin Tmax R s Состояние
почвы
03 18.06.18 тихо ()   10 км    8/6 1000 м средняя 
[Sc|Ac trans]
+16.3 +16.3 100 +28  1012.6  0.2  742  278           
06 18.06.18 280 (З) 10 км    9/9 1000 м 
[Cu Sc]
+20 +17.1 83 +33  1013.4  1.1  742  275  +16.2        влажная 
09 18.06.18 300 (СЗ) 15000 м    8/8 1000 м 
[Cu Sc]
+21.3 +16.7 75 +33  1013.8  0.5  743  274           
12 18.06.18 310 (СЗ) 15000 м    5/5 1000 м 
[Cu hum]
+24.9 +18.1 66 +40  1012.4  -1.1  742  270           
15 18.06.18 350 (С) 15000 м  гроза, ливневой дождь  10/10 1000 м кучево-дожд. 
[Cb cap]
+22.6 +16.4 68 +34  1012.7  0.1  742  273           
18 18.06.18 тихо ()   10 км  в посл. час дождь{гроза}  9/9 1000 м 
[Sc]
+19.4 +18.8 96 +36  1014  1.1  743  275    +26.2     
00 19.06.18 020 (С) 10 км  {дождь}  10/10 1000 м 
[Sc]
+18.5 +18 97 +35  1015.9  0.1  744  277      0.2     
03 19.06.18 270 (З) 10 км  в посл. час дождь  10/10 1000 м 
[Sc]
+18.2 +17.9 98 +34  1016.2  0.2  744  277           
06 19.06.18 320 (СЗ) 10 км    9/3 1000 м средняя 
[Sc|Ac trans]
+20.1 +17.7 86 +34  1017  1.1  745  276  +18.1    0.3    влажная 
09 19.06.18 290 (З) 15000 м    4/4 1000 м 
[Cu hum]
+23.4 +18.2 73 +38  1017.1  0.2  745  272           
12 19.06.18 130 (ЮВ) 10 км  слаб. дождь  10/10 1000 м 
[Cu Sc]
+21.4 +21 98 +43  1017.3  0.1  745  273         
15 19.06.18 300 (СЗ) 20000 м    ясно 
+25.7 +16.5 57 +37  1016.2  -0.8  745  271           
18 19.06.18 100 (В) 20000 м    6/3 1000 м верхняя 
[Cu med, cong|Ci sp]
+23.7 +18.2 71 +39  1017  0.6  745  272    +26     
21 19.06.18 290 (З) 20000 м    ясно 
+21.3 +18.3 83 +36  1019  1.8  746  275           
00 20.06.18 тихо ()   15000 м    ясно 
+19.9 +19 95 +36  1019.8  0.8  747  276           
03 20.06.18 090 (В) 10 км    3/1 1000 м верхняя 
[Sc|Ci sp]
+17.5 +17.2 98 +32  1020.7  0.6  748  279           
06 20.06.18 310 (СЗ) 8000 м  дымка  6/6 1000 м 
[Sc]
+21.4 +18.4 83 +37  1021.2  0.8  748  275  +17.4        влажная 
09 20.06.18 300 (СЗ) 15000 м    4/3 1000 м средняя 
[Cu Sc|Ac trans]
+25.3 +18.6 66 +41  1021.1  0.3  748  272           
12 20.06.18 310 (СЗ) 20000 м  слаб. дождь  8/8 1000 м 
[Cu Sc]
+27.2 +19.6 63 +45  1019.5  -1.5  747  269      0.0     
18 20.06.18 300 (СЗ) 30000 м  {гроза, ливн. осадки}  1/1 1000 м 
[Cu med, cong]
+26.1 +18 61 +41  1017.7  -0.2  746  270    +29.8  0.4     
00 21.06.18 090 (В) 15000 м    ясно 
+18.5 +16.8 90 +32  1019.2  -0.1  747  278           
06 21.06.18 050 (СВ) 20000 м    3/0 верхняя 
[Ci sp]
+21.2 +16.8 76 +33  1018.8  0.1  746  275  +16.7        влажная 
09 21.06.18 070 (В) 20000 м    5/0 верхняя 
[Cs]
+26.5 +17.8 59 +41  1017.2  -1.2  746  270           
12 21.06.18 100 (В) 20000 м  гроза без осадков  9/9 1000 м кучево-дожд. 
[Cb cap]
+27.5 +16.8 52 +40  1014.8  -2.3  744  269           
18 21.06.18 060 (СВ) 20000 м  {гроза}  10/3 1000 м средняя 
[Sc|Ac As]
+22.8 +15.4 63 +32  1014.8  -0.1  743  273    +31.1       
Время (UTC), дата Ветер
(°,м/с) 
Видим.   Явления Облачность Т
(°С)
Тd
(°С)
f(%) Тe
(°С)
Pmin
(гПа)
dP
(гПа)
Po
(мм)
O2
(г/м3)
Тmin Tmax R s Состояние
почвы

Для получения пояснительной информации подведите курсор к названию столбца.

ПОГОДА Nis - архив

Всё, что Вы хотите узнать о погоде Nis - удобно и подробно!

Выберите нужную дату (начиная с 1 января 2015* года) и нажмите кнопку "Найти".
Будут отображены архивные сводки погоды по пункту Nis, начиная с указанной даты.


Отображать данные в формате CSV (для использования в таблицах Excel)


Внимание! Наш архив погоды предназначен исключительно для личного некоммерческого использования в познавательных целях. Если Вам необходимы официальные справки о состоянии погоды (для производственных, юридических, коммерческих и т.п. целей), обращайтесь в органы Росгидромета.

*Примечание: данная дата относится к архиву по метеостанциям СССР (Россия, СНГ, Балтия).
Архив по метеостанциям Зарубежной Европы и Азии (кроме Китая) хранится 10 дней, по другим регионам земного шара (Китай, Африка, Америка, Австралия, Океания) - 1 день.

Nis - район местоположения метеостанции


Название, широта, долгота, высота метеостанции:
Nis 43.3°ш. 21.9°д. 202 м над ур. моря [Serbia]

Дополнительная информация

В oтличие oт бoльшинства пoгoдных сайтoв мы публикуем пoдрoбную метеoинфoрмацию в детальнoм прoфессиoнальнoм фoрмате.

Характеристики температуры и влажнoсти вoздуха измеряются на высoте 2 м в тени вдали oт зданий и деревьев.
Скoрoсть ветра измеряется на высoте 10 м (на урoвне рoста челoвека скoрoсть ветра ниже в 1.5-2 раза). Если метеoстанция нахoдится в гoрoде или в лесу, тo скoрoсть ветра занижена на 2-4 м/с пo сравнению с oткрытым местoм. Скoрoсть ветра над акватoриями крупных рек и oзёр, а также на вершинах хoлмoв на 2-5 м/с выше, чем в oбычных услoвиях.
Атмoсфернoе давление в разных тoчках местнoсти мoжет значительнo oтличаться oт давления на метеoстанции, в зависимoсти oт услoвий рельефа (при пoдъёме на 10 м давление пoнижается примернo на 1 мм рт.ст.).